User: anonymous   Login
Location: Iesi
(43.5167°N, 13.2333°E)
Time: 11:49:00
(UTC+00:00)
Language:

SL-16 R/B - Orbit

View from above orbital plane
View from above orbital plane
View from above satellite
View from above satellite

Ground track
Ground track

The orbit data is extracted from the following two-line orbital elements,

1 27006U 01056F   20304.90894358 -.00000050 +00000-0 -65484-5 0  9991
2 27006 099.4933 074.5077 0014502 353.2003 113.7466 13.70964361945187
Epoch (UTC): 30 October 2020 21:48:52
Eccentricity: 0.0014502
inclination: 99.4933°
perigee height: 985 km
apogee height: 1007 km
right ascension of ascending node: 74.5077°
argument of perigee: 353.2003°
revolutions per day: 13.70964361
mean anomaly at epoch: 113.7466°
orbit number at epoch: 94518

The dashed part of the orbit path shows where the satellite is in the earth's shadow,  

DLR